Change the Weather History Date:

Sunday, May 5, 2013

  Actual Average Record
Temperature  
Mean Temperature 52 °F -  
Max Temperature 66 °F 81 °F 93 °F (1952)
Min Temperature 39 °F 53 °F 39 °F (1971)
Degree Days  
Heating Degree Days 12    
Growing Degree Days 2 (Base 50)    
Moisture  
Dew Point 43 °F    
Average Humidity 69    
Maximum Humidity 93    
Minimum Humidity 44    
Precipitation  
Precipitation 0.00 in - - ()
Sea Level Pressure  
Sea Level Pressure 29.87 in    
Wind  
Wind Speed 5 mph (WSW)    
Max Wind Speed 16 mph    
Max Gust Speed 23 mph    
Visibility 10 miles    
Events      
Averages and records for this station are not official NWS values.
T = Trace of Precipitation, MM = Missing Value Source: NWS Daily Summary

Daily Weather History Graph

Daily Weather History Graph

Search for Another Location

Airport or City:

Trip Planner

Search our weather history database for the weather conditions in past years. The results will help you decide how hot, cold, wet, or windy it might be!

Date:

Astronomy

May. 05, 2013 Rise Set
Actual Time 5:56 AM CDT 7:29 PM CDT
Civil Twilight 5:30 AM CDT 7:55 PM CDT
Nautical Twilight 4:59 AM CDT 8:27 PM CDT
Astronomical Twilight 4:26 AM CDT 9:00 PM CDT
Moon 3:11 AM CDT (5/5) 3:42 PM CDT (5/5)
Length of Visible Light 14h 25m
Length of Day
13h 32m
Waning Crescent, 18% of the Moon is Illuminated
May 5
Waning Crescent
May 9
New
May 17
First Quarter
May 24
Full
May 31
Last Quarter

Hourly Weather History & Observations

Time (CDT) Temp. Windchill Dew Point Humidity Pressure Visibility Wind Dir Wind Speed Gust Speed Precip Events Conditions
12:56 AM 44.1 °F - 42.1 °F 93% 29.88 in 10.0 mi Calm Calm - N/A   Clear
1:56 AM 43.0 °F - 41.0 °F 93% 29.87 in 10.0 mi Calm Calm - N/A   Clear
3:56 AM 43.0 °F - 39.9 °F 89% 29.86 in 10.0 mi Calm Calm - N/A   Clear
4:56 AM 41.0 °F - 39.0 °F 93% 29.86 in 10.0 mi Calm Calm - N/A   Clear
5:56 AM 39.9 °F 37.8 °F 37.9 °F 93% 29.86 in 10.0 mi Variable 3.5 mph - N/A   Clear
6:56 AM 44.1 °F 42.5 °F 42.1 °F 93% 29.86 in 10.0 mi SSE 3.5 mph - N/A   Clear
7:56 AM 50.0 °F - 46.0 °F 86% 29.86 in 10.0 mi ESE 4.6 mph - N/A   Overcast
8:56 AM 55.9 °F - 45.0 °F 67% 29.84 in 10.0 mi South 8.1 mph - N/A   Overcast
9:33 AM 59.0 °F - 48.2 °F 67% 29.84 in 10.0 mi South 5.8 mph - N/A   Mostly Cloudy
9:51 AM 62.6 °F - 50.0 °F 63% 29.83 in 10.0 mi SSW 9.2 mph - N/A   Scattered Clouds
9:56 AM 62.1 °F - 50.0 °F 65% 29.83 in 10.0 mi SSW 8.1 mph - N/A   Partly Cloudy
10:56 AM 64.9 °F - 48.0 °F 54% 29.83 in 10.0 mi SW 8.1 mph - N/A   Scattered Clouds
11:56 AM 66.0 °F - 48.9 °F 54% 29.83 in 10.0 mi West 11.5 mph 19.6 mph N/A   Mostly Cloudy
12:56 PM 64.9 °F - 45.0 °F 48% 29.83 in 10.0 mi WNW 13.8 mph 20.7 mph N/A   Scattered Clouds
1:56 PM 64.9 °F - 44.1 °F 47% 29.84 in 10.0 mi West 12.7 mph 19.6 mph N/A   Mostly Cloudy
2:56 PM 61.0 °F - 42.1 °F 50% 29.84 in 10.0 mi West 16.1 mph 23.0 mph N/A   Mostly Cloudy
3:56 PM 62.1 °F - 41.0 °F 46% 29.85 in 10.0 mi WNW 11.5 mph 19.6 mph N/A   Mostly Cloudy
4:56 PM 61.0 °F - 39.0 °F 44% 29.86 in 10.0 mi West 15.0 mph 20.7 mph N/A   Partly Cloudy
5:56 PM 59.0 °F - 39.9 °F 49% 29.87 in 10.0 mi WNW 10.4 mph 18.4 mph N/A   Scattered Clouds
6:56 PM 57.0 °F - 39.9 °F 53% 29.88 in 10.0 mi WNW 10.4 mph 16.1 mph N/A   Clear
7:56 PM 53.1 °F - 39.9 °F 61% 29.91 in 10.0 mi WNW 6.9 mph - N/A   Clear
8:56 PM 51.1 °F - 42.1 °F 71% 29.92 in 10.0 mi WNW 8.1 mph - N/A   Clear
9:56 PM 48.0 °F - 42.1 °F 80% 29.93 in 10.0 mi West 5.8 mph - N/A   Clear
10:56 PM 48.0 °F - 43.0 °F 83% 29.94 in 10.0 mi West 5.8 mph - N/A   Clear
11:56 PM 46.9 °F - 44.1 °F 90% 29.94 in 10.0 mi West 6.9 mph - N/A   Clear